Find OneWeb SL0335

NORAD ID: 49201 Int'l Des: 2021-083 Owner: ONEWEBN Country: UK Constellation: oneweb operational
LEOCIRCULARPOLARONEWEB_TYPE

Live Position

Loading 3D Globe...

About OneWeb SL0335

Description loading...

Upcoming Passes

Passes for default location (London). Set your location on the main map for personalized predictions.

Altitude History

Loading altitude history...

Two-Line Element Set

1 49201U 21083R 26109.85922022 -.00000095 00000-0 -29631-3 0 9998
2 49201 87.8975 331.8513 0001622 89.4668 270.6646 13.13469187223267
Epoch: Apr 19, 2026 • Age: 7 hours

Current Status

Altitude 1221.3 km
Velocity 7.24 km/s
Sub-Earth Point -29.29°S, 102.76°W
Launch Date Sep 14, 2021
Age 4.5 years
Type internet

Technical Details

Classification Payload
Mass 148.00 kg
Dry Mass 140.00 kg
Total Mass 148.00 kg
Length 1.30 m
Diameter 1.00 m
Span 5.00 m
Shape Trapezoid+2 pan
Manufacturer ONEWUS
Bus Type ARROW
Phase Status In Orbit
Owner/State ONEWEBN/UK

Most Searched